Location: Cosy Dell
(34.2789°N, 117.4537°W)
Time: 11:53:12
(UTC+00:00)

Cosmos 2221 Rocket - Pass Details

Date: 14 July 2020
Orbit: 619 x 649 km, 82.5° (Epoch: 09 August)

Event Time Altitude Azimuth Distance (km) Brightness Sun altitude
Rises 10:20:44 0° 347° (NNW) 2,901 7.6 -24.4°
Reaches altitude 10° 10:23:00 10° 343° (NNW) 1,990 6.6 -24.1°
Enters shadow 10:26:36 48° 301° (WNW) 811 4.0 -23.6°
